Location: Lecco
(45.8566°N, 9.3977°E)
Time: 08:05:20
(UTC+02:00)

Altair - Pass Details

Date: 20 August 2020
Orbit: 1501 x 1682 km, 47.2° (Epoch: 25 September)

Event Time Altitude Azimuth Distance (km) Brightness Sun altitude
Rises 09:08:47 0° 289° (WNW) 4,697 9.5 26.6°
Reaches altitude 10° 09:12:55 10° 274° (W) 3,687 9.0 27.3°
Maximum altitude 09:18:56 20° 233° (SW) 2,968 8.8 28.4°
Drops below altitude 10° 09:24:54 10° 191° (S) 3,642 9.6 29.4°
Sets 09:28:59 0° 175° (S) 4,621 10.2 30.1°
